Location: Cruquius
(52.3348°N, 4.6319°E)
Time: 04:47:41
(UTC+00:00)

Okean 2 Rocket - Pass Details

Date: 12 May 2021
Orbit: 616 x 641 km, 82.5° (Epoch: 14 June)

Event Time Altitude Azimuth Distance (km) Brightness Sun altitude
Rises 23:36:01 0° 351° (N) 2,906 8.1 -19.3°
Reaches altitude 10° 23:38:18 10° 356° (N) 1,994 6.9 -19.3°
Maximum altitude 23:42:39 58° 76° (ENE) 723 3.4 -19.3°
Enters shadow 23:44:15 36° 138° (SE) 990 3.7 -19.3°
